DW1254 Weather Reports


Display with metric or nautical units.
time (UTC)temp
F
wind
direction
speed
MPH
gust
MPH
rain 1hr
in
rain 24hr
in
rain mn
in
humidity
%
barometer
mb
20220627054625 64 323 2.0 11.0 0.14 0.27 0.27 81 1024.0
20220627053725 64 342 1.0 7.0 0.14 0.27 0.27 80 1023.8
20220627052825 64 330 5.0 11.0 0.14 0.27 0.27 81 1023.5
20220627051925 64 338 5.0 10.0 0.14 0.27 0.27 82 1023.2
20220627051025 65 321 5.0 11.0 0.14 0.27 0.27 82 1023.6
20220627050124 67 345 3.0 7.0 0.11 0.24 0.24 81 1023.7
20220627045225 70 9 1.0 4.0 0.05 0.18 0.19 78 1023.9
20220627044325 70 13 0.0 3.0 0.00 0.13 0.13 75 1023.7
20220627043425 70 357 0.0 1.0 0.00 0.13 0.13 73 1023.9
20220627042525 71 313 0.0 4.0 0.00 0.13 0.13 69 1023.5
20220627041625 70 302 1.0 5.0 0.00 0.13 0.13 68 1023.3
20220627040725 71 0 0.0 0.0 0.00 0.13 0.13 71 1023.4
20220627035824 71 293 1.0 4.0 0.00 0.13 0.13 66 1022.9
20220627034925 71 304 2.0 5.0 0.00 0.13 0.13 66 1022.7
20220627034024 70 315 1.0 4.0 0.00 0.13 0.13 68 1022.5
20220627033125 70 324 2.0 5.0 0.00 0.13 0.13 69 1022.3
20220627032224 70 327 1.0 5.0 0.00 0.13 0.13 72 1022.4
20220627031325 69 343 0.0 3.0 0.00 0.13 0.13 75 1022.3
20220627030424 69 310 1.0 4.0 0.00 0.13 0.13 76 1022.2
20220627025524 68 306 1.0 4.0 0.00 0.13 0.13 75 1021.8
20220627024626 68 0 0.0 0.0 0.00 0.13 0.13 81 1022.0
20220627023724 68 0 0.0 0.0 0.00 0.13 0.13 82 1021.9
20220627022824 68 0 0.0 0.0 0.00 0.13 0.13 82 1021.7
20220627021925 68 134 0.0 1.0 0.00 0.13 0.13 82 1021.6
20220627021024 69 192 1.0 4.0 0.00 0.13 0.13 82 1021.4
20220627020125 69 188 2.0 7.0 0.00 0.13 0.13 81 1021.5
20220627015225 68 0 0.0 0.0 0.00 0.13 0.13 79 1021.1
20220627014324 68 0 0.0 0.0 0.00 0.13 0.13 82 1020.9
20220627013424 68 0 0.0 0.0 0.00 0.13 0.13 82 1020.7
20220627012525 68 0 0.0 0.0 0.00 0.13 0.13 82 1020.8
20220627011624 68 13 0.0 3.0 0.00 0.13 0.13 81 1020.6
20220627010724 67 0 0.0 0.0 0.00 0.13 0.13 82 1020.6
20220627005824 67 1 1.0 4.0 0.03 0.13 0.13 81 1020.8
20220627004924 67 352 1.0 4.0 0.04 0.13 0.13 81 1020.7
20220627004025 67 357 1.0 5.0 0.04 0.13 0.13 81 1020.8
20220627003124 66 328 1.0 4.0 0.04 0.13 0.13 82 1020.9
20220627002224 67 327 0.0 5.0 0.07 0.13 0.13 81 1021.0
20220627001324 66 311 3.0 7.0 0.11 0.13 0.13 82 1020.9
20220627000424 67 294 3.0 10.0 0.09 0.11 0.12 81 1021.3
20220626235524 66 331 1.0 5.0 0.07 0.09 0.09 82 1021.3
20220626234624 66 355 1.0 5.0 0.07 0.09 0.09 82 1021.3
20220626233724 66 49 3.0 13.0 0.07 0.09 0.09 81 1021.2
20220626232824 67 75 11.0 24.0 0.07 0.09 0.09 74 1021.0
20220626231924 71 85 8.0 19.0 0.00 0.02 0.02 71 1021.3
20220626231024 75 61 4.0 13.0 0.00 0.02 0.02 61 1020.9
20220626230124 76 64 3.0 13.0 0.00 0.02 0.02 58 1021.1
20220626225224 77 60 1.0 5.0 0.00 0.02 0.02 56 1021.4
20220626224324 78 51 1.0 4.0 0.00 0.02 0.02 57 1021.5
20220626223424 78 80 1.0 6.0 0.00 0.02 0.02 53 1021.3
20220626222524 78 78 0.0 8.0 0.00 0.02 0.02 52 1021.0
20220626221624 78 72 2.0 7.0 0.00 0.02 0.02 53 1021.2
20220626220724 78 82 2.0 9.0 0.00 0.02 0.02 52 1021.3
20220626215824 78 75 1.0 8.0 0.00 0.02 0.02 53 1021.4
20220626214924 78 75 1.0 5.0 0.00 0.02 0.02 53 1021.7
20220626214024 79 69 2.0 8.0 0.00 0.02 0.02 51 1021.8
20220626213124 78 81 3.0 10.0 0.00 0.02 0.02 53 1022.0
20220626212224 78 82 3.0 9.0 0.00 0.02 0.02 53 1021.8
20220626211324 78 92 4.0 9.0 0.00 0.02 0.02 51 1022.0
20220626210424 79 79 3.0 10.0 0.00 0.02 0.02 51 1022.1
20220626205524 80 55 2.0 10.0 0.00 0.02 0.02 51 1022.2
20220626204624 79 67 2.0 7.0 0.00 0.02 0.02 54 1022.4
20220626203724 78 68 4.0 9.0 0.00 0.02 0.02 54 1022.6
20220626202824 78 97 3.0 11.0 0.00 0.02 0.02 54 1022.4
20220626201924 78 112 4.0 9.0 0.00 0.02 0.02 52 1022.7
20220626201024 78 132 1.0 7.0 0.00 0.02 0.02 54 1023.0
20220626200124 78 110 4.0 11.0 0.00 0.02 0.02 51 1022.9
20220626195224 78 132 2.0 9.0 0.00 0.02 0.02 52 1022.9
20220626194325 79 86 2.0 11.0 0.00 0.02 0.02 50 1023.0
20220626193424 78 96 4.0 13.0 0.00 0.02 0.02 52 1023.0
20220626192524 78 102 2.0 13.0 0.00 0.02 0.02 54 1023.1
20220626191624 77 86 2.0 7.0 0.00 0.02 0.02 56 1023.4
20220626190724 76 133 3.0 7.0 0.00 0.02 0.02 59 1023.7
20220626185824 75 123 3.0 8.0 0.00 0.02 0.02 59 1023.4
20220626184924 75 97 3.0 9.0 0.00 0.02 0.02 61 1023.6
20220626184024 74 91 2.0 7.0 0.00 0.02 0.02 59 1023.5
20220626183124 74 165 2.0 5.0 0.00 0.02 0.02 62 1023.7
20220626182224 73 75 1.0 7.0 0.00 0.02 0.02 65 1023.7
20220626181324 71 73 0.0 4.0 0.00 0.02 0.02 66 1023.6
20220626180424 70 80 1.0 6.0 0.00 0.02 0.02 69 1023.9
20220626175524 70 83 3.0 7.0 0.00 0.02 0.02 69 1023.6
20220626174624 70 79 0.0 6.0 0.00 0.02 0.02 69 1023.6
20220626173724 70 70 0.0 3.0 0.00 0.02 0.02 69 1023.5
20220626172824 70 58 0.0 3.0 0.00 0.02 0.02 71 1023.7
20220626171924 69 38 0.0 4.0 0.00 0.02 0.02 71 1023.5
20220626171024 69 43 1.0 5.0 0.00 0.02 0.02 75 1023.8
20220626170124 68 49 1.0 5.0 0.00 0.02 0.02 76 1023.6
20220626165224 68 51 1.0 5.0 0.01 0.02 0.02 79 1023.7
20220626164324 67 66 1.0 5.0 0.01 0.02 0.02 81 1023.7
20220626163424 66 57 0.0 5.0 0.01 0.02 0.02 82 1023.5
20220626162524 66 49 2.0 7.0 0.01 0.02 0.02 82 1023.5
20220626161624 66 50 2.0 6.0 0.01 0.02 0.02 82 1023.4
20220626160724 66 60 1.0 5.0 0.01 0.02 0.02 82 1023.5
20220626155824 66 65 1.0 5.0 0.01 0.02 0.02 82 1023.8
20220626154924 66 86 1.0 6.0 0.00 0.01 0.01 82 1023.7
20220626154024 66 96 1.0 6.0 0.00 0.01 0.01 82 1023.8
20220626153124 66 105 2.0 7.0 0.00 0.01 0.01 82 1023.9
20220626152224 66 82 2.0 6.0 0.00 0.01 0.01 81 1023.7
20220626151324 66 66 2.0 8.0 0.00 0.01 0.01 81 1023.5
20220626150424 66 54 2.0 7.0 0.00 0.01 0.01 81 1023.4
20220626145524 66 65 2.0 7.0 0.00 0.01 0.01 81 1023.4
20220626144624 66 67 3.0 8.0 0.00 0.01 0.01 79 1023.2
20220626143724 67 51 2.0 7.0 0.00 0.01 0.01 77 1022.9
20220626142824 66 46 2.0 7.0 0.00 0.01 0.01 77 1022.7
20220626141924 67 49 3.0 10.0 0.00 0.01 0.01 78 1022.9
20220626141024 67 53 3.0 8.0 0.00 0.01 0.01 77 1022.8
20220626140124 67 49 2.0 7.0 0.00 0.01 0.01 77 1022.6
20220626135224 67 31 2.0 6.0 0.00 0.01 0.01 77 1022.4
20220626134324 66 42 1.0 6.0 0.00 0.01 0.01 78 1022.3
20220626133424 65 30 1.0 7.0 0.00 0.01 0.01 80 1022.1
20220626132523 65 48 1.0 8.0 0.00 0.01 0.01 82 1022.0
20220626131624 65 66 1.0 4.0 0.00 0.01 0.01 82 1022.3
20220626130724 65 68 1.0 4.0 0.00 0.01 0.01 82 1022.4
20220626125824 65 45 1.0 7.0 0.00 0.01 0.01 82 1022.4
20220626124924 65 54 1.0 5.0 0.00 0.01 0.01 82 1022.3
20220626124024 65 65 0.0 3.0 0.00 0.01 0.01 82 1022.2
20220626123123 65 73 1.0 6.0 0.00 0.01 0.01 82 1021.8
20220626122224 65 97 0.0 3.0 0.00 0.01 0.01 82 1021.8
20220626121323 65 0 0.0 0.0 0.00 0.01 0.01 82 1021.6
20220626120424 65 0 0.0 0.0 0.00 0.01 0.01 82 1021.8
20220626115524 65 0 0.0 0.0 0.00 0.01 0.01 83 1021.9
20220626114624 65 113 1.0 4.0 0.00 0.01 0.01 83 1021.9
20220626113724 65 0 0.0 0.0 0.00 0.01 0.01 82 1021.8
20220626112824 66 0 0.0 0.0 0.01 0.01 0.01 82 1021.8
20220626111924 66 114 1.0 3.0 0.01 0.01 0.01 82 1021.6
20220626111024 66 107 2.0 8.0 0.01 0.01 0.01 81 1021.6
20220626110123 66 111 1.0 5.0 0.01 0.01 0.01 81 1021.6
20220626105223 66 144 0.0 2.0 0.01 0.01 0.01 80 1021.8
20220626104323 67 0 0.0 0.0 0.01 0.01 0.01 78 1022.0
20220626103424 68 149 2.0 6.0 0.01 0.01 0.01 75 1022.0
20220626102524 68 160 2.0 6.0 0.00 0.00 0.00 71 1021.7
20220626101623 68 178 1.0 5.0 0.00 0.00 0.00 71 1021.6
20220626100723 68 0 0.0 0.0 0.00 0.00 0.00 71 1021.5
20220626095824 68 0 0.0 0.0 0.00 0.00 0.00 72 1021.4
20220626094923 68 0 0.0 0.0 0.00 0.00 0.00 71 1021.2
20220626094023 69 0 0.0 0.0 0.00 0.00 0.00 71 1021.0
20220626093124 69 0 0.0 0.0 0.00 0.00 0.00 68 1021.1
20220626092224 69 0 0.0 0.0 0.00 0.00 0.00 68 1021.2
20220626091323 69 242 0.0 3.0 0.00 0.00 0.00 68 1021.1
20220626090423 69 242 1.0 4.0 0.00 0.00 0.00 68 1021.0
20220626085524 68 249 0.0 4.0 0.00 0.00 0.00 70 1021.0
20220626084624 67 0 0.0 0.0 0.00 0.00 0.00 72 1020.6
20220626083724 67 184 0.0 2.0 0.00 0.00 0.00 73 1020.8
20220626082823 66 178 0.0 1.0 0.00 0.00 0.00 75 1020.9
20220626081923 66 0 0.0 0.0 0.00 0.00 0.00 75 1020.9
20220626081024 66 0 0.0 0.0 0.00 0.00 0.00 75 1020.8
20220626080123 66 0 0.0 0.0 0.00 0.00 0.00 76 1021.1
20220626075223 67 0 0.0 0.0 0.00 0.00 0.00 74 1021.1
20220626074323 67 175 0.0 3.0 0.00 0.00 0.00 72 1021.1
20220626073423 67 0 0.0 0.0 0.00 0.00 0.00 73 1021.0
20220626072523 67 0 0.0 0.0 0.00 0.00 0.00 75 1021.0
20220626071624 67 0 0.0 0.0 0.00 0.00 0.00 76 1021.0
20220626070723 68 0 0.0 0.0 0.00 0.00 0.00 76 1021.2
20220626065823 68 85 0.0 1.0 0.00 0.00 0.00 75 1021.2
20220626064923 69 86 0.0 1.0 0.00 0.00 0.00 74 1021.2
20220626064023 69 139 2.0 6.0 0.00 0.00 0.00 69 1021.1
20220626063123 70 129 4.0 10.0 0.00 0.00 0.00 67 1021.2
20220626062223 71 136 7.0 11.0 0.00 0.00 0.00 63 1021.1
20220626061323 72 140 4.0 10.0 0.00 0.00 0.00 60 1020.9
20220626060423 72 138 3.0 8.0 0.00 0.00 0.00 59 1021.0
20220626055523 73 138 1.0 5.0 0.00 0.00 0.00 59 1020.9